Location: Newark
(42.9858°N, 0.6717°E)
Time: 19:26:06
(UTC+00:00)

S-56A Canister/Altair - Pass Details

Date: 26 November 2019
Orbit: 633 x 2499 km, 38.9° (Epoch: 10 December)

Event Time Altitude Azimuth Distance (km) Brightness Sun altitude
Rises 11:25:41 0° 187° (S) 6,164 13.4 25.9°
Reaches altitude 10° 11:31:56 10° 170° (S) 5,100 13.5 26.0°
Maximum altitude 11:39:55 17° 136° (SE) 4,286 12.2 26.1°
Drops below altitude 10° 11:47:03 10° 102° (ESE) 4,506 11.7 26.1°
Sets 11:51:54 0° 84° (E) 5,183 11.7 26.1°
